OPS 7684 DEB

Satellite information

Favourite Embed

Satellite Type and Status

DEBRISIN ORBIT

Key statistics

Satellite OPS 7684 DEB at a glance.

Uptime

20663

Days in orbit

Revolutions

≈ 12.6

Per day

Orbit

LEO

Low Earth Orbit

Inclination

80.2

Latest

Satellite identification and parameters

Extended collection of information and parameters for OPS 7684 DEB.

Object identification

Identified? True

Debris? True

Object name: OPS 7684 DEB

International designator: 1968-112C

Object number (NORAD): 3617

Object ID (CCSDS): 3617

Country: UNITED STATES OF AMERICA (US)

Current information (Y/N): Y

RCS size: SMALL

Orbital parameters

Period: 113.968 minutes

Inclination: 80.1766 deg

SMA: 7786.611 km

Apoapsis: 1445.663 km

Periapsis: 1371.29 km

RAAN: 339.0285 deg

Eccentricy: 0.0047757

Argument of periapsis: 176.0869 deg

Mean anomaly: 301.6763 deg

Mean motion: 12.63513876 rev/day

Mean motion (dot): 0.00000039 rev/day2

B* drag term: 0.00018313 1/REarth

Two-line elements (TLE)

Creation date: July 9, 2025, 2:22 a.m.

Reference frame: TEME

Reference center: EARTH

Epoch: July 8, 2025, 8:19 p.m. UTC

TLE line 0: 0 OPS 7684 DEB

TLE line 1: 1 03617U 68112C 25189.84683119 .00000039 00000-0 18313-3 0 9991

TLE line 2: 2 03617 80.1766 339.0285 0047757 176.0869 301.6763 12.63513876607656

Live tracking on map

Real-time ground track for satellite OPS 7684 DEB.

In-orbit conjunctions

A list of the most updated potential collisions computed for object OPS 7684 DEB.

Target Orbit TCA Probability of collision Miss distance Type
COSMOS 2091 LEO 2024-10-04 16:05:20 0.0001048058 210.0 (m) PAYLOAD

Associated space launch

The KH-4A (Keyhole-4A) was the fifth optical reconnaissance satellite version in the Corona-program.

OPS 7684 DEB was lifted into orbit during the mission ‘Thorad SLV-2G Agena D | KH-4A 49’, on board a Thorad SLV-2G Agena D space rocket.

The launch took place on Dec. 12, 1968, 10:22 p.m. from Space Launch Complex 3W.

For more information about the launch, click the button.

Launch to space Thorad SLV-2G Agena D | KH-4A 49
Thorad SLV-2G Agena D | KH-4A 49

Agency: N/A

Status: Launch Successful

Launch date: Dec. 12, 1968, 10:22 p.m. UTC

Rocket: Thorad SLV-2G Agena D

Launch pad: Space Launch Complex 3W

Location: Vandenberg SFB, CA, USA

...

Latest news about this satellite

There are no fresh news available about this satellite. Check back as we update our databases every day.


Newsletter sign-up

Weekly statistics, charts and insights to help you stay on top of the space industry.